Location: Bacea
(45.9500°N, 22.6667°E)
Time: 06:45:55
(UTC+00:00)

Cosmos 1300 - Pass Details

Date: 31 May 2022
Orbit: 506 x 508 km, 82.5° (Epoch: 06 July)

Event Time Altitude Azimuth Distance (km) Brightness Sun altitude
Rises 23:11:28 0° 343° (NNW) 2,623 7.3 -21.3°
Reaches altitude 10° 23:13:41 10° 336° (NNW) 1,732 6.1 -21.2°
Enters shadow 23:17:05 37° 273° (W) 797 3.5 -21.1°
